www.pogodaiklimat.ru

Погода и климат >> Архив погоды >> Россия >> Якутия >> Джалинда


ПОГОДА в Джалинде

  • Прогноз погоды в Джалинде
  • Монитор погоды в Джалинде
  • Климат города

АРХИВ ПОГОДЫ в Джалинде

Время (UTC), дата Ветер
(напр.,м/с)
 
Видим.   Явления Облачность Т
(С)
Тd
(С)
f
(%)
Тe
(С)
Тes
(С)
Комфортность P
(гПа)
Po
(гПа)
Тmin
(С)
Tmax
(С)
R
(мм)
S
(см)
15 14.02 штиль 0 50 км ясно -39.9 -42.8 74 -40 -40 опасность
обморожения
1019.8 1010.6
18 14.02 штиль 0 50 км ясно -42.0 -45.0 72 -42 -42 опасность
обморожения
1020.1 1010.7
21 14.02 штиль 0 50 км ясно -42.4 -45.0 75 -42 -42 опасность
обморожения
1022.4 1013.0
00 15.02 штиль 0 50 км ясно -42.7 -45.6 73 -43 -43 опасность
обморожения
1022.9 1013.5 -42.7 31
03 15.02 штиль 0 50 км ясно -40.7 -43.3 76 -41 -40 опасность
обморожения
1022.3 1013.1
06 15.02 штиль 0 50 км 3/0
[Ci fib]
-34.2 -37.1 75 -34 -34 опасность
обморожения
1021.9 1012.9
09 15.02 Ю 1 50 км 4/0
[Ci fib]
-32.9 -35.8 75 -37 -37 опасность
обморожения
1022.5 1013.5
12 15.02 штиль 0 50 км ясно -33.2 -36.3 74 -33 -33 опасность
обморожения
1022.5 1013.5 -32.9
15 15.02 штиль 0 50 км ясно -35.6 -38.4 75 -36 -36 опасность
обморожения
1022.8 1013.8
18 15.02 штиль 0 50 км ясно -36.8 -39.8 74 -37 -37 опасность
обморожения
1023.0 1013.8
21 15.02 Ю 5 50 км 3/0
[Ci fib]
-33.6 -36.6 74 -47 -47 опасность
обморожения
1017.1 1008.1
00 16.02 Ю 3 50 км 4/0
[Ci fib]
-33.7 -36.6 75 -44 -44 опасность
обморожения
1016.3 1007.1 -35.8 31
03 16.02 Ю 3 50 км 8/0
[Ci sp]
-32.2 -35.3 74 -42 -42 опасность
обморожения
1015.3 1006.3
06 16.02 Ю 3 50 км 8/0
[Ci sp]
-29.5 -32.6 74 -39 -39 опасность
обморожения
1013.8 1005.0
09 16.02 штиль 0 50 км 8/0
[Ci sp]
-28.8 -31.9 74 -29 -29 1015.1 1006.3
12 16.02 штиль 0 50 км ясно -29.5 -32.6 74 -30 -30 1014.9 1006.1 -28.6
15 16.02 штиль 0 50 км ясно -31.3 -34.3 75 -31 -31 опасность
обморожения
1014.3 1005.5
18 16.02 штиль 0 50 км ясно -32.6 -35.5 75 -33 -33 опасность
обморожения
1014.0 1005.0
21 16.02 штиль 0 50 км ясно -33.2 -36.3 74 -33 -33 опасность
обморожения
1013.5 1004.6
00 17.02 штиль 0 50 км ясно -35.9 -38.1 80 -36 -36 опасность
обморожения
1010.4 1001.5 -35.9 31
03 17.02 штиль 0 50 км 8/0
[Ci sp]
-33.4 -35.6 80 -33 -33 опасность
обморожения
1009.4 1000.5
06 17.02 штиль 0 50 км 8/0
[Ci sp]
-31.5 -33.9 79 -32 -31 опасность
обморожения
1007.1 998.3
09 17.02 штиль 0 50 км 9/0
[Ci sp]
-26.5 -29.7 74 -27 -27 1005.6 996.9
12 17.02 штиль 0 50 км 4/0
[Ci fib]
-24.9 -28.1 75 -25 -25 1005.1 996.6 -24.9
15 17.02 штиль 0 50 км ясно -28.0 -31.2 74 -28 -28 1003.5 994.9
18 17.02 штиль 0 50 км ясно -33.3 -36.3 74 -33 -33 опасность
обморожения
1003.4 994.6
21 17.02 штиль 0 50 км ясно -36.7 -38.8 81 -37 -37 опасность
обморожения
1005.0 995.9
00 18.02 штиль 0 50 км ясно -40.7 -42.7 81 -41 -41 опасность
обморожения
1005.4 996.3 -40.7 31
03 18.02 штиль 0 50 км 3/0
[Ci fib]
-40.0 -42.2 79 -40 -40 опасность
обморожения
1004.9 995.8
06 18.02 штиль 0 50 км 3/0
[Ci fib]
-32.4 -34.8 79 -32 -32 опасность
обморожения
1004.3 995.4
09 18.02 штиль 0 50 км 3/0
[Ci fib]
-32.0 -34.4 79 1004.7 995.4
12 18.02 штиль 0 50 км ясно -35.9 -38.1 80 -36 -36 опасность
обморожения
1004.4 995.5 -31.8
15 18.02 штиль 0 50 км ясно -39.1 -41.2 80 -39 -39 опасность
обморожения
1004.4 995.3
18 18.02 штиль 0 50 км ясно -40.7 -42.7 81 -41 -41 опасность
обморожения
1003.9 994.9
21 18.02 штиль 0 50 км ясно -37.9 -40.3 78 -38 -38 опасность
обморожения
1000.8 991.8
00 19.02 штиль 0 50 км ясно -37.0 -39.8 75 -37 -37 опасность
обморожения
1000.1 991.1 -40.7 31
03 19.02 штиль 0 50 км 3/0
[Ci fib]
-34.9 -37.7 75 -35 -34 опасность
обморожения
1000.6 991.8
06 19.02 штиль 0 50 км 3/0
[Ci fib]
-28.0 -31.2 74 -28 -28 999.5 990.9
09 19.02 штиль 0 50 км 4/0
[Ci sp]
-29.1 -31.6 79 -29 -29 1002.4 999.8
12 19.02 штиль 0 50 км 3/0
[Ci fib]
-35.3 -37.7 79 -35 -35 опасность
обморожения
1003.9 995.0 -27.8
15 19.02 штиль 0 50 км ясно -39.2 -41.2 81 -39 -39 опасность
обморожения
1005.7 996.6
18 19.02 штиль 0 50 км ясно -40.5 -42.7 79 -41 -41 опасность
обморожения
1007.0 997.9
21 19.02 штиль 0 50 км ясно -42.7 -45.0 78 -43 -43 опасность
обморожения
1010.4 1001.1
00 20.02 штиль 0 50 км 3/0
[Ci fib]
-44.3 -46.4 79 -44 -44 опасность
обморожения
1012.8 1003.5 -44.0 31
03 20.02 штиль 0 50 км 3/0
[Ci fib]
-42.8 -45.0 79 -43 -42 опасность
обморожения
1014.8 1005.4
06 20.02 штиль 0 50 км ясно -37.2 -39.5 79 -37 -37 опасность
обморожения
1015.9 1006.7
09 20.02 штиль 0 50 км ясно -35.3 -38.4 73 -35 -35 опасность
обморожения
1015.3 1005.3
12 20.02 штиль 0 50 км ясно -40.9 -43.8 73 -41 -41 опасность
обморожения
1017.7 1008.5 -35.3
15 20.02 штиль 0 50 км ясно -43.3 -46.3 72 -43 -43 опасность
обморожения
1017.5 1008.1
18 20.02 штиль 0 50 км ясно -44.0 -47.0 72 -44 -44 опасность
обморожения
1017.2 1007.8
21 20.02 штиль 0 50 км ясно -45.5 -47.2 83 -46 -46 опасность
обморожения
1020.5 1011.1
00 21.02 штиль 0 50 км ясно -45.7 -48.1 76 -46 -46 опасность
обморожения
1020.8 1011.4 -45.7 31
03 21.02 н/о -42.6
06 21.02 штиль 0 50 км ясно -35.7 -38.1 78 -36 -35 опасность
обморожения
1019.7 1010.7
09 21.02 штиль 0 50 км ясно -35.4 -38.4 74 -35 -35 опасность
обморожения
1020.3 1011.3

 

Местоположение метеостанции Джалинда (Якутия, Россия): широта 70.13 долгота 113.90 высота над уровнем моря 62 м.

В архиве по умолчанию представлена погода в Джалинде за последнюю неделю. Архивные данные за месяц целиком и за предыдущие месяцы, начиная с января 2011 года, Вы можете получить, выбрав интересующий диапазон дат из раскрывающегося списка и нажав кнопку "Ввод!".

Внимание! Время в таблицах - всемирное. Для получения местного времени необходимо прибавить поправку, которая в Джалинде равна 9 ч.

Смотрите также архив погоды в соседних городах и на ближайших метеорологических станциях:

Погода в Оленеке (Якутия, Россия) (191 км)
Погода в Саскылахе (Якутия, Россия) (205 км)
Погода в Сухане (Якутия, Россия) (241 км)
Погода в Анабаре (Якутия, Россия) (344 км)
Погода в Усть-Оленеке (Якутия, Россия) (380 км)
Погода в Полярном (Якутия, Россия) (383 км)
Погода в Ярольине (Якутия, Россия) (399 км)
Погода в Тюмяти (Якутия, Россия) (400 км)
Погода в Джарджане (Якутия, Россия) (424 км)
Погода в Шелагонцах (Якутия, Россия) (432 км)

Пояснения к столбцам:

Ветер - указаны скорость ветра в м/с - средняя за 10 мин, порывы в срок и между сроками (в фигурных скобках) и направление, откуда дует ветер: С - северный, СВ - северо-восточный, В - восточный, ЮВ - юго-восточный, Ю - южный, ЮЗ - юго-западный, З - западный, СЗ - северо-западный.
Видимость - горизонтальная дальность видимости в метрах или километрах. При видимости от 1 до 10 км при отсутствии осадков обычно наблюдается дымка, при ухудшении видимости до 1 км и менее - туман. В сухую погоду видимость может ухудшаться дымом, пылью или мглою.
Явления - указаны атмосферные явления, наблюдавшиеся в срок или в последний час перед сроком; фигурными скобками обозначены явления, наблюдавшиеся между сроками (за 1-3 часа до срока); квадратными скобками обозначены град или гололедные отложения с указанием их диаметра в мм.
Облачность - указаны через наклонную черту общая и нижняя облачность в баллах и высота нижней границы облаков в метрах; квадратными скобками обозначены формы облаков: Ci - перистые, Cs - перисто-слоистые, Cc - перисто-кучевые, Ac - высококучевые, As - высокослоистые, Sc - слоисто-кучевые, Ns - слоисто-дождевые, Cu - кучевые, Cb - кучево-дождевые. Подробнее классификацию облаков см. в Атласе облаков (PDF).
T - Температура воздуха - температура, измеренная на высоте 2 м над землей.
Td - Температура точки росы - температура, при понижении до которой содержащийся в воздухе водяной пар достигнет насыщения.
f - Относительная влажность воздуха - влажноcть воздуха, измеренная на высоте 2 м над землей.
Te - Эффективная температура - температура, которую ощущает одетый по сезону человек в тени. Характеристика душности погоды. При расчете учитывается влияние влажности воздуха и скорости ветра на теплоощущения человека.
Tes - Эффективная температура на солнце - температура, которую ощущает человек, с поправкой на солнечный нагрев. Характеристика знойности погоды. Зависит от высоты солнца над горизонтом, облачности и скорости ветра. Ночью, в пасмурную погоду, а также при ветре 12 м/с и более поправка равна нулю.
P - Атмосферное давление - приведенное к уровню моря атмосферное давление.
Po - Атмосферное давление - измеренное на уровне метеостанции атмосферное давление.
Tmin - Минимальная температура - минимум температуры воздуха на высоте 2 м над землей.
Tmax - Максимальная температура - максимум температуры воздуха на высоте 2 м над землей.
R - Количество осадков - Количество выпавших осадков, мм. При наведении курсора мыши на число - период времени, за который выпало указанное количество осадков.
S - Снежный покров - Высота снежного покрова, см. При наведении курсора мыши на число - состояние снежного покрова и степень покрытия местности в баллах.